2 27607 064.5597 277.3383 0063603 197.1444 162.7522 14.71448773353890
CO-55
1 27844U 03031E 09203.55946459 .00000011 00000-0 25221-4 0 6279
2 27844 098.7121 212.2231 0010801 044.6314 315.5742 14.20647322314286
CO-57
1 27848U 03031J 09203.54194119 .00000031 00000-0 34916-4 0 05766
2 27848 098.7151 211.2681 0010753 046.9194 313.2880 14.20448607314247
AO-51
1 28375U 04025K 09203.94161844 -.00000005 00000-0 11218-4 0 04434
2 28375 098.0516 211.4592 0085149 017.0524 343.3494 14.40647445266100
CO-56
1 28941U 06005C 09203.91018633 .00066373 42351-5 18721-3 0 02798
2 28941 098.1348 025.1922 0072433 356.7892 003.2945 15.89132430192910
GENESAT1
1 29655U 06058C 09204.40438098 .00009481 00000-0 91716-4 0 7647
2 29655 040.0236 316.2667 0002464 004.1694 355.9167 15.66281804148151
CP3
1 31129U 07012N 09204.14045077 -.00000015 00000-0 71405-5 0 821
2 31129 097.9854 255.4922 0102532 173.1395 187.1242 14.52148622120105
CO-65
1 32785U 08021C 09202.97587372 -.00000038 00000-0 20444-5 0 04364
2 32785 097.9432 266.6521 0013873 280.0472 079.9168 14.81500670066592
KKS-1
1 33493U 09002B 09204.32044164 .00000136 00000-0 24705-4 0 5923
2 33493 098.0585 316.6925 0021316 122.8858 237.4419 14.80701851 26810
SOHLA-1
1 33496U 09002E 09204.34037350 -.00000016 00000-0 55181-5 0 5568
2 33496 098.0396 313.0886 0006854 157.9145 202.2374 14.69440243 26584
NOAA-10
1 16969U 86073A 09203.62664804 -.00000083 00000-0 -15891-4 0 06960
2 16969 098.6903 230.0792 0013168 092.6729 267.5975 14.27390378188568
NOAA-11
1 19531U 88089A 09203.77752426 -.00000063 00000-0 -97759-5 0 07155
2 19531 098.7850 293.1821 0011723 011.1058 349.0369 14.14899084074557
NOAA-12
1 21263U 91032A 09203.97258906 .00000038 00000-0 34836-4 0 02205
2 21263 098.7714 212.0479 0013440 045.1831 315.0438 14.25586234945496
MET-3/5
1 21655U 91056A 09203.93072753 .00000051 00000-0 10000-3 0 07459
2 21655 082.5551 181.2444 0015065 090.3640 269.9209 13.17019217862331
MET-2/21
1 22782U 93055A 09203.75765513 .00000040 00000-0 23139-4 0 5178
2 22782 082.5497 153.7953 0020791 246.2007 113.6980 13.83637293802521
OKEAN-4
1 23317U 94066A 09203.79965809 .00000220 00000-0 24216-4 0 9698
2 23317 082.5427 301.2539 0020458 246.1502 113.7563 14.82709970797644
NOAA-14
1 23455U 94089A 09203.76929496 .00000169 00000-0 11272-3 0 06994
2 23455 098.9087 281.3233 0010488 091.5733 268.6647 14.13767221750952
NOAA-15
1 25338U 98030A 09203.93874289 .00000152 00000-0 83655-4 0 00153
2 25338 098.5844 192.3640 0009942 318.9699 041.0760 14.24774969581864
RESURS
1 25394U 98043A 09203.63931957 -.00000022 00000-0 82155-5 0 02796
2 25394 098.3367 234.1788 0002287 090.5445 269.5996 14.24186174573447
FENGYUN1
1 25730U 99025A 09203.95787514 .00000702 00000-0 43770-3 0 08589
2 25730 098.7549 173.0471 0022473 111.0830 249.2744 14.07925072525355
OKEAN-0
1 25860U 99039A 09204.49974483 .00000013 00000-0 93064-5 0 7386
2 25860 097.7880 184.2401 0001913 069.6460 290.4951 14.73581103538499
NOAA-16
1 26536U 00055A 09203.92202890 .00000356 00000-0 21793-3 0 04936
2 26536 099.1753 208.4530 0010643 175.6952 184.4302 14.12528271455345
NOAA-17
1 27453U 02032A 09203.83369595 .00000213 00000-0 11091-3 0 04963
2 27453 098.4817 261.6716 0011988 025.5506 334.6262 14.24078878367820
NOAA-18
1 28654U 05018A 09203.77948653 -.00000144 00000-0 -55113-4 0 09857
2 28654 098.9060 146.7450 0013219 262.8948 097.0741 14.11270754214974
NOAA-19
1 33591U 09005A 09203.83811919 .00000289 00000-0 18455-3 0 01884
2 33591 098.7458 148.6739 0014780 138.8927 221.3398 14.10973161023466
HUBBLE
1 20580U 90037B 09201.16345431 .00000257 00000-0 68857-5 0 04238
2 20580 028.4701 247.0752 0003234 273.0910 086.9308 15.00816473854815
ISS
1 25544U 98067A 09203.87036815 .00007315 00000-0 54643-4 0 02672
2 25544 051.6387 123.6448 0005973 269.1546 213.8474 15.73959216611574
CO-58
1 28895U 05043F 09203.77552737 .00000032 00000-0 16247-4 0 03523
2 28895 098.0537 093.3886 0016808 234.1186 125.8486 14.59782494198927
FALCON
1 30776U 07006E 09203.49857976 .00000142 00000-0 13329-4 0 6182
2 30776 035.4341 245.1680 0001395 265.3284 094.7273 15.03272382130413
MAST
1 31126U 07012K 09203.62496175 -.00000008 00000-0 85599-5 0 06477
2 31126 097.9871 256.8051 0094773 169.2933 191.0316 14.53507525120186
CAPE1
1 31130U 07012P 09203.62986299 -.00000047 00000-0 -21184-6 0 06603
2 31130 097.9871 254.9130 0102662 174.9825 185.2406 14.52074736119835
COMPASS
1 32787U 08021E 09202.94976761 .00000154 00000-0 26421-4 0 04231
2 32787 097.9404 266.4767 0014613 280.2415 079.7147 14.81628752066592
AAUSAT2
1 32788U 08021F 09203.65756712 .00000015 00000-0 87005-5 0 04145
2 32788 097.9405 267.2440 0014446 278.9550 080.9950 14.81752855066700
DO-64
1 32789U 08021G 09203.81450432 .00000351 00000-0 51200-4 0 4278
2 32789 097.9452 267.5838 0014548 277.6014 082.3542 14.81748752 66727
CO-66
1 32791U 08021J 09202.72646154 -.00000112 00000-0 -74025-5 0 04131
2 32791 097.9417 266.2887 0015063 279.8289 080.1212 14.81454551066521
RS-30
1 32953U 08025A 09203.60525940 .00000010 00000-0 00000-0 0 03616
2 32953 082.4981 234.5866 0020630 100.6346 259.7059 12.43002379052792
TACSAT-3
1 35001U 09028A 09203.96822399 .00001309 00000-0 38931-4 0 00565
2 35001 040.4568 026.6647 0023977 064.8230 295.5067 15.38944692009868
PHARMSAT
1 35002U 09028B 09203.87127845 .00001252 00000-0 36600-4 0 546
2 35002 040.4696 026.8621 0026445 069.0864 291.2782 15.39710260 9846
HAWKSAT1
1 35003U 09028C 09203.92547445 .00000857 00000-0 26751-4 0 00574
2 35003 040.4711 026.4037 0027032 071.9101 288.4655 15.39948051009861
CP6
1 35004U 09028D 09203.85260605 .00002234 00000-0 59470-4 0 505
2 35004 040.4623 026.6701 0027044 071.1399 289.2349 15.40247322 9840
AEROCUB3
1 35005U 09028E 09204.83286483 .00003291 00000-0 85209-4 0 511
2 35005 040.4741 020.9789 0026762 076.0195 284.3596 15.40089232 9999
/EX
1
0
SB KEPS @ AMSAT $ORB09204.O
Orbital Elements 09204.OSCAR
HR AMSAT ORBITAL ELEMENTS FOR OSCAR SATELLITES
FROM WA5QGD FORT WORTH,TX July 23, 2009
Send Subscribe/unsubscribe to KEPS at
http://www.amsat.org/mailman/listinfo/keps
BID: ORB09204.O
TO ALL RADIO AMATEURS BT
Satellite: AO-07
Catalog number: 07530
Epoch time: 09204.56027600
Element set: 536
Inclination: 101.4243 deg
RA of node: 227.8992 deg
Eccentricity: 0.0011645
Arg of perigee: 196.9255 deg
Mean anomaly: 163.1433 deg
Mean motion: 12.53575954 rev/day
Decay rate: -2.7e-07 rev/day^2
Epoch rev: 58727
Checksum: 302
Satellite: FO-29
Catalog number: 24278
Epoch time: 09203.64704197
Element set: 0092
Inclination: 098.5487 deg
RA of node: 072.9103 deg
Eccentricity: 0.0349742
Arg of perigee: 258.4962 deg
Mean anomaly: 097.6716 deg
Mean motion: 13.52944217 rev/day
Decay rate: 2.0e-08 rev/day^2
Epoch rev: 63854
Checksum: 339
Satellite: SO-33
Catalog number: 25509
Epoch time: 09203.42259103
Element set: 503
Inclination: 031.4343 deg
RA of node: 213.2517 deg
Eccentricity: 0.0354772
Arg of perigee: 286.5546 deg
Mean anomaly: 069.6413 deg
Mean motion: 14.28257545 rev/day
Decay rate: -7.2e-07 rev/day^2
Epoch rev: 56087
Checksum: 297
Satellite: RS-22
Catalog number: 27939
Epoch time: 09203.68695170
Element set: 0848
Inclination: 097.9388 deg
RA of node: 077.2565 deg
Eccentricity: 0.0014222
Arg of perigee: 024.7177 deg
Mean anomaly: 335.4713 deg
Mean motion: 14.63329979 rev/day
Decay rate: 3.5e-07 rev/day^2
Epoch rev: 31076
Checksum: 340
Satellite: VO-52
Catalog number: 28650
Epoch time: 09203.91098911
Element set: 0279
Inclination: 097.7418 deg
RA of node: 264.3086 deg
Eccentricity: 0.0025900
Arg of perigee: 272.8036 deg
Mean anomaly: 087.0208 deg
Mean motion: 14.81602187 rev/day
Decay rate: -1.88e-06 rev/day^2
Epoch rev: 22793
Checksum: 321
/EX
SB KEPS @ AMSAT $ORB09204.D
Orbital Elements 09204.MICROS
HR AMSAT ORBITAL ELEMENTS FOR THE MICROSATS
FROM WA5QGD FORT WORTH,TX July 23, 2009
Send Subscribe/unsubscribe to KEPS at
http://www.amsat.org/mailman/listinfo/keps
BID: ORB09204.D
TO ALL RADIO AMATEURS BT
Satellite: AO-16
Catalog number: 20439
Epoch time: 09203.91330159
Element set: 0658
Inclination: 098.2810 deg
RA of node: 170.6938 deg
Eccentricity: 0.0011967
Arg of perigee: 066.2603 deg
Mean anomaly: 293.9833 deg
Mean motion: 14.31829060 rev/day
Decay rate: 6.0e-08 rev/day^2
Epoch rev: 01826
Checksum: 304
Satellite: LO-19
Catalog number: 20442
Epoch time: 09203.68495298
Element set: 0574
Inclination: 098.2433 deg
RA of node: 177.6011 deg
Eccentricity: 0.0012795
Arg of perigee: 064.4375 deg
Mean anomaly: 295.8124 deg
Mean motion: 14.32063754 rev/day
Decay rate: -6.7e-07 rev/day^2
Epoch rev: 01839
Checksum: 320
Satellite: AO-27
Catalog number: 22825
Epoch time: 09203.84867716
Element set: 0298
Inclination: 098.4371 deg
RA of node: 156.1529 deg
Eccentricity: 0.0008721
Arg of perigee: 153.5701 deg
Mean anomaly: 206.5926 deg
Mean motion: 14.29269033 rev/day
Decay rate: -1.45e-06 rev/day^2
Epoch rev: 82500
Checksum: 314
Satellite: IO-26
Catalog number: 22826
Epoch time: 09203.83260139
Element set: 0025
Inclination: 098.4316 deg
RA of node: 156.8697 deg
Eccentricity: 0.0009234
Arg of perigee: 149.5720 deg
Mean anomaly: 210.6004 deg
Mean motion: 14.29521811 rev/day
Decay rate: -1.1e-07 rev/day^2
Epoch rev: 82510
Checksum: 277
Satellite: GO-32
Catalog number: 25397
Epoch time: 09203.71790884
Element set: 0949
Inclination: 098.3253 deg
RA of node: 224.1537 deg
Eccentricity: 0.0002016
Arg of perigee: 124.8900 deg
Mean anomaly: 235.2458 deg
Mean motion: 14.23161618 rev/day
Decay rate: 4.5e-07 rev/day^2
Epoch rev: 57318
Checksum: 304
Satellite: NO-44
Catalog number: 26931
Epoch time: 09203.82531276
Element set: 0224
Inclination: 067.0534 deg
RA of node: 332.5288 deg
Eccentricity: 0.0006091
Arg of perigee: 278.2923 deg
Mean anomaly: 081.7504 deg
Mean motion: 14.29560759 rev/day
Decay rate: -2.62e-06 rev/day^2
Epoch rev: 40767
Checksum: 308
Satellite: SO-50
Catalog number: 27607
Epoch time: 09203.66519546
Element set: 0943
Inclination: 064.5597 deg
RA of node: 277.3383 deg
Eccentricity: 0.0063603
Arg of perigee: 197.1444 deg
Mean anomaly: 162.7522 deg
Mean motion: 14.71448773 rev/day
Decay rate: 7.4e-07 rev/day^2
Epoch rev: 35389
